User: anonymous   Login
Location: Unspecified
(0.0000°N, 0.0000°E)
Time: 00:40:49
(UTC+00:00)
Language:

Kiku-4 - Orbit

View from above orbital plane
View from above orbital plane
View from above satellite
View from above satellite

Ground track
Ground track

The orbit data is extracted from the following two-line orbital elements,

1 13492U 82087A   18265.60822340 -.00000061 +00000-0 +63169-4 0  9998
2 13492 044.6152 120.5352 0010668 106.5538 282.5916 13.70981010804971
Epoch (UTC): 22 September 2018 14:35:50
Eccentricity: 0.0010668
inclination: 44.6152°
perigee height: 988 km
apogee height: 1004 km
right ascension of ascending node: 120.5352°
argument of perigee: 106.5538°
revolutions per day: 13.70981010
mean anomaly at epoch: 282.5916°
orbit number at epoch: 80497

The dashed part of the orbit path shows where the satellite is in the earth's shadow,  

DLR